sat.trackr.live / text

‹ back to catalog

STARLINK-35957

NORAD 66823 · 2025-280C

PAYLOAD ACTIVE UNKNOWN

§ Identity

Operator
Country
US
Launch date
2025-12-02
Launch site
AFWTR
Launch vehicle
Mass (kg)
RCS (m²)

Purposes: comms

External: N2YO · Heavens-Above · Gunter

§ Orbital elements

Epoch: 2026-05-25T02:18:29.752416Z

Period
96.11 min
Inclination
70.0008°
Eccentricity
0.0004030
Mean motion
14.98312071 rev/d
Perigee alt
569.3 km
Apogee alt
574.9 km
Semi-major
6,950.2 km
B*
-2.8392e-4
RAAN
141.6973°
Arg perigee
262.8584°
Mean anomaly
97.2117°
Rev number
2,752

§ Raw data

STARLINK-359571 66823U 25280C   26145.09617769 -.00003478  00000+0 -28392-3 0  99952 66823  70.0008 141.6973 0004030 262.8584  97.2117 14.98312071 27524

JSON: /api/v1/satellites/66823 · /tle

For live sub-satellite position, see the globe view (requires WebGL).

§ Visibility from observer

Set your observer location to see the next 7 days of passes ≥ 10°. The values pass through the URL so the page stays shareable.

No JS? Fill the form by hand. The geolocation button needs JavaScript.